Regional Weather Roundup
Issued by NWS

Home | Current Version | Previous Version | Graphics & Text | Print | Product List | Glossary On
Versions: 1 2 3 4 5 6 7 8 9 10 11 12 13 14 15 16 17 18 19 20 21 22 23 24 25 26 27 28
000
ASUS45 KBOI 220510
RWRID

IDAHO REGIONAL WEATHER ROUNDUP
NATIONAL WEATHER SERVICE BOISE ID
1100 PM MDT MON AUG 21 2017

NOTE: "FAIR" INDICATES FEW OR NO CLOUDS BELOW 12000 FEET
WITH NO SIGNIFICANT WEATHER AND/OR OBSTRUCTIONS TO VISIBILITY

IDZ012-014-220600-
SOUTHWEST IDAHO


CITY           SKY/WX    TMP DP  RH WIND       PRES   REMARKS
BOISE          CLEAR     70  41  34 SW3       30.05S
CALDWELL       CLEAR     64  50  60 NE3       30.03S
MOUNTAIN HOME  CLEAR     70  37  30 NW5       30.07R
$$

IDZ016-017-220600-
SOUTHCENTRAL IDAHO


CITY           SKY/WX    TMP DP  RH WIND       PRES   REMARKS
BURLEY         CLEAR     56  45  66 S5        30.14S
JEROME         CLEAR     63  43  48 E7        30.14R
TWIN FALLS     CLEAR     62  39  42 S10       30.15R
$$

IDZ019>023-220600-
SOUTHEAST IDAHO


CITY           SKY/WX    TMP DP  RH WIND       PRES   REMARKS
IDAHO FALLS    CLEAR     58  40  51 CALM      30.20R
POCATELLO      CLEAR     62  36  37 CALM      30.18R
REXBURG        CLEAR     59  43  55 N6        30.20R
$$

IDZ006-010-011-018-031-032-220600-
CENTRAL IDAHO MOUNTAINS


CITY           SKY/WX    TMP DP  RH WIND       PRES   REMARKS
MCCALL         CLEAR     62  37  39 CALM      30.20R
HAILEY         CLEAR     57  45  62 W6        30.24R
STANLEY          N/A     52  32  46 S5        30.30R
SALMON         CLEAR     59  40  49 CALM      30.15R
CHALLIS        CLEAR     62  38  40 SE5       30.19R
$$

IDZ002-004-006-007-026-220600-
NORTHERN IDAHO


CITY           SKY/WX    TMP DP  RH WIND       PRES   REMARKS
LEWISTON       CLEAR     76  38  25 S8        30.01S
LOWELL           N/A     63  50  62 NW3       30.06R
COEUR D`ALENE  CLEAR     67  50  54 E3        30.08S
MULLAN PASS    PTCLDY    62  36  37 N3        30.28F
$$




USA.gov is the U.S. government's official web portal to all federal, state and local government web resources and services.